[[{"header":{"parameterUnit":"m.s-1","parameterCategory":1,"la1":30.2992,"la2":30.254,"lo1":-89.0895,"lo2":-89.0443,"dy":0.0025,"dx":0.0025,"nx":19,"ny":19,"refTime":"2026-04-20T09:00:00:Z","depth":0,"parameterNumber":2,"parameterNumberName":"U-component_of_WINDS"},"data":[0,0,0,-6.1624,-6.1626,-6.1685,-6.1685,-6.1801,-6.1803,0,0,0,0,0,0,0,0,0,0,0,-6.1632,-6.1634,-6.1624,-6.1626,-6.1685,-6.1685,-6.1801,-6.1803,0,0,0,0,0,0,0,0,0,0,0,-6.1632,-6.1633,-6.1636,-6.1627,-6.1685,-6.1685,-6.1801,-6.1742,0,0,0,0,0,0,0,0,0,0,-6.1678,-6.171,-6.1633,-6.1636,-6.1627,-6.1685,-6.1685,-6.1738,-6.1745,-6.1793,0,-6.1841,0,-6.1824,-6.1813,-6.1814,0,0,0,-6.1608,-6.1704,-6.1697,-6.1636,-6.1628,-6.1685,-6.1653,-6.1742,-6.175,-6.1803,-6.1843,-6.1846,-6.1826,-6.1814,-6.1815,-6.2147,-6.2149,0,0,-6.1604,-6.1657,-6.1691,-6.1703,-6.1697,-6.1651,-6.1655,-6.1746,-6.1793,-6.1843,-6.1848,-6.1828,-6.1815,-6.1816,-6.2144,-6.2147,0,0,0,-6.1608,-6.1655,-6.1645,-6.17,-6.1707,-6.1653,-6.1658,-6.1789,-6.1781,-6.1849,-6.1829,-6.1816,-6.1818,-6.2142,-6.2145,-6.2313,0,0,0,-6.1605,-6.1657,-6.1644,-6.1677,-6.1706,-6.1749,-6.17,-6.1775,-6.1784,-6.1829,-6.1816,-6.1819,-6.2139,-6.2144,-6.2302,-6.2382,0,0,0,-6.162,-6.1658,-6.1676,-6.168,-6.1707,-6.1746,-6.1743,-6.1776,-6.1773,-6.1814,-6.182,-6.2137,-6.2143,-6.2293,-6.2367,-6.2481,0,0,0,-6.1651,-6.1827,-6.1679,-6.1867,-6.1707,-6.1851,-6.1742,-6.1847,-6.1902,-6.1817,-6.2139,-6.2145,-6.229,-6.2357,-6.2472,-6.2585,-6.2638,0,0,-6.1901,-6.1859,-6.1965,-6.1835,-6.2017,-6.1837,-6.2045,-6.2047,-6.2005,-6.2102,-6.2109,-6.2306,-6.2366,-6.2479,-6.2923,-6.2965,0,0,0,-6.2062,-6.2138,-6.2176,-6.223,-6.2235,-6.2245,-6.2209,-6.221,-6.2289,-6.2065,-6.2379,-6.2413,-6.2477,-6.2528,-6.2565,-6.2615,-6.2172,-6.2171,-6.2171,-6.249,-6.2423,-6.2594,-6.2534,-6.2589,-6.2549,-6.2586,-6.258,-6.25,-6.2576,-6.2603,-6.2879,-6.2942,-6.2968,-6.3022,-6.266,-6.2661,-6.2662,-6.2662,-6.2846,-6.2942,-6.283,-6.2954,-6.2883,-6.2987,-6.2956,-6.2896,-6.2981,-6.2854,-6.2908,-6.2771,-6.3017,-6.3059,-6.2674,-6.2672,-6.267,-6.2669,-6.2668,-6.3115,-6.3149,-6.3146,-6.3215,-6.3276,-6.3211,-6.3298,-6.3232,-6.3171,-6.3224,-6.3243,-6.324,-6.3225,-6.3238,-6.3239,-6.324,-6.3241,-6.3242,-6.3242,-6.3394,-6.3385,-6.3465,-6.3484,-6.3508,-6.3532,-6.3494,-6.3516,-6.3524,-6.3469,-6.3468,-6.3379,-6.3055,-6.2972,-6.3257,-6.3254,-6.3252,-6.3251,-6.325,-6.3773,-6.3676,-6.38,-6.3824,-6.3838,-6.3902,-6.3817,-6.3868,-6.3877,-6.3921,-6.3821,-6.3593,-6.3545,-6.3516,-6.3446,-6.3837,-6.3837,-6.3837,-6.3837,-6.3996,-6.3966,-6.4075,-6.4117,-6.4152,-6.4087,-6.4227,-6.42,-6.4156,-6.4158,-6.4093,-6.3997,-6.397,-6.3937,-6.3899,-6.3832,-6.4313,-6.4313,-6.4314,-6.4223,-6.4192,-6.4324,-6.4278,-6.4285,-6.4291,-6.442,-6.4474,-6.4405,-6.4332,-6.4156,-6.4136,-6.398,-6.3934,-6.3853,-6.3796,-6.3673,0,0]},{"header":{"parameterUnit":"m.s-1","parameterCategory":1,"la1":30.2992,"la2":30.254,"lo1":-89.0895,"lo2":-89.0443,"dy":0.0025,"dx":0.0025,"nx":19,"ny":19,"refTime":"2026-04-20T09:00:00:Z","depth":0,"parameterNumber":3,"parameterNumberName":"V-component_of_WINDS"},"data":[0,0,0,2.3065,2.3067,2.313,2.313,2.323,2.3231,0,0,0,0,0,0,0,0,0,0,0,2.3059,2.306,2.3065,2.3067,2.313,2.313,2.323,2.3231,0,0,0,0,0,0,0,0,0,0,0,2.3058,2.306,2.3061,2.3067,2.313,2.313,2.323,2.3175,0,0,0,0,0,0,0,0,0,0,2.3111,2.3117,2.3059,2.3061,2.3068,2.3129,2.313,2.3172,2.3179,2.321,0,2.3242,0,2.3238,2.3239,2.324,0,0,0,2.3058,2.3112,2.3118,2.3061,2.3068,2.3129,2.3099,2.3176,2.3183,2.3219,2.3243,2.3247,2.324,2.324,2.3241,2.3455,2.3457,0,0,2.3054,2.3077,2.3113,2.3123,2.3115,2.3097,2.3101,2.318,2.3208,2.3244,2.3249,2.3242,2.3241,2.3242,2.3454,2.3456,0,0,0,2.3051,2.3075,2.3078,2.3119,2.3129,2.3099,2.3103,2.3204,2.3203,2.3249,2.3243,2.3242,2.3243,2.3452,2.3454,2.3547,0,0,0,2.3048,2.3073,2.3077,2.3092,2.3128,2.3167,2.3127,2.3198,2.3206,2.3242,2.3242,2.3244,2.3451,2.3453,2.3541,2.3587,0,0,0,2.3051,2.3073,2.3086,2.3093,2.312,2.3166,2.3169,2.3199,2.3203,2.324,2.3245,2.3449,2.3453,2.3536,2.3578,2.365,0,0,0,2.306,2.3168,2.3088,2.3206,2.312,2.3223,2.3168,2.3243,2.3286,2.3242,2.3451,2.3454,2.3534,2.3573,2.3645,2.3715,2.3746,0,0,2.3209,2.3186,2.3254,2.3184,2.3307,2.3211,2.3347,2.3365,2.3348,2.342,2.3425,2.3543,2.3578,2.3649,2.3914,2.3939,0,0,0,2.3309,2.3358,2.3385,2.3427,2.3443,2.3461,2.3456,2.3462,2.3523,2.339,2.3588,2.3608,2.3649,2.3681,2.3702,2.3736,2.347,2.347,2.3469,2.3552,2.3524,2.3634,2.3614,2.3655,2.3648,2.3679,2.3687,2.3647,2.3694,2.3716,2.388,2.3919,2.3935,2.397,2.375,2.3751,2.3751,2.3751,2.3767,2.3831,2.3775,2.3862,2.3832,2.3904,2.3902,2.3872,2.3934,2.3861,2.3896,2.3819,2.3963,2.3992,2.3758,2.3757,2.3756,2.3755,2.3755,2.3923,2.3949,2.3955,2.4013,2.406,2.4036,2.4099,2.407,2.4042,2.4076,2.4096,2.4094,2.4089,2.4088,2.4088,2.4089,2.4089,2.409,2.409,2.4082,2.4086,2.4143,2.4169,2.4192,2.4219,2.4213,2.4235,2.4252,2.4225,2.4225,2.4181,2.3982,2.3933,2.4099,2.4097,2.4096,2.4095,2.4095,2.431,2.4254,2.4342,2.4365,2.4393,2.4443,2.4404,2.4451,2.4465,2.4497,2.4445,2.4303,2.4278,2.4261,2.422,2.445,2.445,2.4451,2.4451,2.4442,2.4426,2.4509,2.4548,2.4583,2.4557,2.4657,2.4654,2.4642,2.4649,2.4611,2.4554,2.4538,2.4523,2.45,2.4462,2.4748,2.4748,2.4748,2.458,2.4567,2.4658,2.4645,2.4665,2.4684,2.4777,2.4824,2.4798,2.476,2.4654,2.4641,2.4549,2.452,2.448,2.4445,2.4373,0,0]}]]